Location: Artiguedieu
(43.5000°N, 0.5454°E)
Time: 03:44:47
(UTC+00:00)

S-56A Canister/Altair - Visible Passes

Search period start: 06 August 2021 00:00
Search period end: 16 August 2021 00:00
Orbit: 631 x 2501 km, 38.9° (Epoch: 05 August)

Date Brightness Start Highest point End Pass type
(mag) Time Alt. Az. Time Alt. Az. Time Alt. Az.
06 Aug 11.1 20:45:18 10° W 20:54:15 19° SW 21:02:17 10° SSW visible
07 Aug 11.2 20:11:00 10° W 20:21:13 23° SW 20:30:28 10° S visible
08 Aug 11.2 19:36:57 10° W 19:48:07 26° SW 19:58:24 10° S visible
11 Aug 11.7 20:08:34 10° WSW 20:12:09 11° SW 20:15:41 10° SW visible
12 Aug 11.7 19:32:45 10° WSW 19:39:08 14° SW 19:45:24 10° SSW visible
